Terminal Aerodrome Forecast
Issued by NWS La Crosse, WI

Home | Current Version | Previous Version | Text Only | Print | Product List | Glossary On
Versions: 1 2 3 4 5 6 7 8 9 10 11 12 13 14 15 16 17 18 19 20 21 22 23 24 25 26 27 28
000
FTUS43 KARX 300127 AAA
TAFRST
TAF AMD
KRST 300127Z 3001/3024 29005KT P6SM VCSH BKN100
      TEMPO 3002/3003 -SHRA BKN050
     FM300300 29005KT P6SM SCT050
     FM301500 33007KT P6SM SCT050=

USA.gov is the U.S. government's official web portal to all federal, state and local government web resources and services.